SL-8 R/B, 7009

Orbit data source: Space-Track

SL-8 R/B, 7009 is space debris in LEO originally from a launch on Sat, 29 Dec 1973 UTC launched from the Plesetsk Missile And Space Complex (PKMTR). Debris objects in space refer to the collection of defunct objects orbiting the Earth. Examples of debris include non-operational satellites, rocket bodies, and fragments generated from explosions, collisions, or faulty payload assembly.

Loading next visibility...
Identifier
7009, 1973-109B
Orbit
LEO
Country
Flag of CISCIS
Related business
Manufacturer
Omsk Av. Zav.
Mission
Spacecraft
Bus & Motor
S3, Unknown motor
Mass
1,434 kg wet, 1,434 kg dry
Launch date (UTC)
1973-12-29 (52 years ago)
Launch vehicle
Unknown
Launch site
Plesetsk Missile And Space Complex (PKMTR)
Object type
Payload
Rocket body
Debris
Shape & HBR
Unknown
Radar Cross Section
Large (>1 m²)

Expand to show TLE details & history
Last TLE update: 2 days ago

TLE from 2 days ago
0 SL-8 R/B
1  7009U 73109B   26171.31355013  .00000007  00000-0 -81258-5 0  9991
2  7009  82.9486  20.1641 0020280  33.9816 139.3454 13.77050610635824
Epoch: 2026-06-20T07:31Z
TLE epoch observation values (Epoch: 2026-06-20T07:31:30.731Z)
Latitude
6.39631°
Longitude
177.96569°
Altitude
987.994 km
Speed
7.352 km/s
True Right ascension
13h 17m 29s
True Declination
6° 21' 34"
Sunlit
Object was in daylight at epoch
Visualization orbit readout
Latitude
Unknown
Longitude
Unknown
Altitude
Unknown
Speed
Unknown
Apparent Right ascension
Unknown
Apparent Declination
Unknown
Sunlit
N/A
Visualization observer readout
Local Sidereal Time
23:20:12
Azimuth
Unknown
Elevation
Unknown
Doppler factor
Unknown
Orbital elements
Apogee altitude
986.417 km
Perigee altitude
956.607 km
Semi-major axis
7,349.649 km
Eccentricity
0.00203
Inclination
82.9486°
RAAN
20.1641°
Arg. of periapsis
33.9816°
True anomaly
139.49651°
Mean anomaly
139.3454°
Eccentric anomaly
139.42098°
Mean motion
3.44464 °/min
Orbital period
104.51 mins
BSTAR
-0.0000081258
Loading maneuver chart data...
Computing Atmospheric mass density...
Loading historical data...
Loading historical data...
Loading historical data...
Loading historical data...
Loading historical data...
Loading historical data...
Loading historical data...
Other satellites on launch #109 in the year 1973 (1973-12-29 UTC)

Documentation

Showing up to 5 results
|